Find Kosmos-1196

NORAD ID: 11879 Int'l Des: 1980-058 Owner: GUKOSR Country: SU operational
LEOCIRCULAR

Live-Position

3D-Globus wird geladen...

Über Kosmos-1196

Beschreibung wird geladen...

Nächste Überflüge

Passes for default location (London). Set your location on the main map for personalized predictions.

Höhenverlauf

Loading altitude history...

Zweizeiliger Elementsatz

1 11879U 80058E 26131.13625198 -.00000006 00000-0 63050-4 0 9990
2 11879 74.0185 73.1712 0005439 278.5136 104.9337 12.48409792567794
Epoch: 11. Mai 2026 • Age: 8 hours

Aktueller Status

Höhe 1485.5 km
Geschwindigkeit 7.12 km/s
Subsatellitenpunkt 61.99°N, 179.41°E
Startdatum 9. Juli 1980
Alter 45.8 years
Typ other

Technische Details

Klassifizierung Payload
Masse 60.00 kg
Trockenmasse 60.00 kg
Gesamtmasse 60.00 kg
Länge 0.80 m
Durchmesser 0.80 m
Spannweite 0.80 m
Form Poly
Hersteller NPOPM
Bus-Typ Strela-1 11F625
Phasenstatus In Orbit
Besitzer/Staat GUKOSR/SU

Most Searched